Volver al catálogo

INSAT 3D

ActivoMeteoGEO
NORAD 39216·PAYLOAD·🇮🇳 India

Lanzado Jul 25, 2013 desde Guiana Space Centre

Loading…

TLE

ActualizadoSource: Space-Track

Época: Sep 14, 2026, 14:25 UTC

1 39216U 13038B   26257.60075446 -.00000346  00000-0  00000-0 0  9994
2 39216   2.1506  81.3151 0001286 109.1612 148.9018  1.00272094 47976

Sigue INSAT 3D en tiempo real con AllMySat

Download on the App Store